This is the latest recevied weather packets stored in our database for station/object K4AGR-13. If no packets are shown the sender has not sent any weather packets the latest 10 day(s).
| Time | Temp. | Humidity | Pressure | Rain* | Wind** | Luminosity | Snow |
|---|---|---|---|---|---|---|---|
| 1777512316 | 22.78° C | 90% | 1013.1 hPa | 1.78 mm | - | 0 W/m² | - |
| 1777512009 | 22.78° C | 90% | 1013.2 hPa | 1.78 mm | - | 0 W/m² | - |
| 1777511708 | 22.78° C | 90% | 1013.1 hPa | 0 mm | - | 0 W/m² | - |
| 1777511405 | 22.78° C | 89% | 1013.3 hPa | 0 mm | - | 0 W/m² | - |
| 1777511105 | 22.78° C | 89% | 1013.3 hPa | 0 mm | - | 0 W/m² | - |
| 1777510797 | 22.78° C | 89% | 1013.2 hPa | 0 mm | - | 0 W/m² | - |
| 1777508679 | 22.78° C | 90% | 1012.3 hPa | 0 mm | - | 0 W/m² | - |
| 1777508377 | 22.78° C | 90% | 1012.4 hPa | 0 mm | - | 0 W/m² | - |
| 1777507770 | 22.78° C | 90% | 1012 hPa | 0 mm | - | 2 W/m² | - |
| 1777507467 | 22.78° C | 89% | 1012.1 hPa | 0 mm | - | 4 W/m² | - |
| 1777507164 | 22.78° C | 89% | 1012 hPa | 0 mm | - | 7 W/m² | - |
| 1777506862 | 23.33° C | 88% | 1012 hPa | 1.27 mm | - | 7 W/m² | - |
| 1777505647 | 23.33° C | 85% | 1011.6 hPa | 0 mm | - | 10 W/m² | - |
| 1777502916 | 26.67° C | 67% | 1011.5 hPa | 0 mm | - | 14 W/m² | - |
| 1777502310 | 26.67° C | 66% | 1011.3 hPa | 0 mm | - | 28 W/m² | - |
| 1777502006 | 26.67° C | 66% | 1011.2 hPa | 0 mm | - | 38 W/m² | - |
| 1777501703 | 27.22° C | 66% | 1011 hPa | 0 mm | - | 39 W/m² | - |
| 1777501401 | 27.78° C | 64% | 1010.8 hPa | 0 mm | - | 44 W/m² | - |
| 1777501098 | 27.78° C | 63% | 1010.7 hPa | 0 mm | - | 83 W/m² | - |
| 1777500796 | 27.78° C | 62% | 1010.8 hPa | 0 mm | - | 107 W/m² | - |
| 1777500493 | 27.78° C | 62% | 1010.5 hPa | 0 mm | - | 136 W/m² | - |
| 1777500189 | 27.78° C | 61% | 1010.6 hPa | 0 mm | - | 174 W/m² | - |
| 1777498978 | 28.33° C | 60% | 1010.8 hPa | 0 mm | - | 201 W/m² | - |
| 1777498673 | 28.33° C | 59% | 1010.9 hPa | 0 mm | - | 100 W/m² | - |
| 1777498370 | 28.33° C | 59% | 1010.8 hPa | 0 mm | - | 199 W/m² | - |
* Rain latest hour (hover to see other rain measurements)
** Current wind speed in m/s (hover to see current wind gust speed)